Location: Newark
(25.7507°S, 31.4676°E)
Time: 21:05:53
(UTC+00:00)

Hubble Space Telescope - Pass Details

Date: 27 January 2020
Orbit: 536 x 540 km, 28.5° (Epoch: 23 February)

Event Time Altitude Azimuth Distance (km) Brightness Sun altitude
Rises 18:04:20 0° 274° (W) 2,688 5.3 -16.4°
Reaches altitude 10° 18:06:36 10° 271° (W) 1,798 4.3 -16.8°
Maximum altitude 18:10:45 67° 188° (S) 586 1.0 -17.6°
Enters shadow 18:12:57 26° 111° (ESE) 1,076 2.0 -18.0°
